Lakeland Region, FL

9:23 AM EDT on March 23, 2017 (GMT -0400)
Lakeland Linder Regional

Weather History for KLAL - August, 2013

Change the Weather History Date:

Wednesday, August 14, 2013

  Actual Average Record
Temperature  
Mean Temperature 83 °F -  
Max Temperature 91 °F 88 °F 95 °F (1998)
Min Temperature 75 °F 72 °F 70 °F (1987)
Cooling Degree Days 18    
Growing Degree Days 33 (Base 50)    
Moisture  
Dew Point 73 °F    
Average Humidity 80    
Maximum Humidity 100    
Minimum Humidity 52    
Precipitation  
Precipitation 0.00 in - - ()
Sea Level Pressure  
Sea Level Pressure 29.99 in    
Wind  
Wind Speed 2 mph (SSW)    
Max Wind Speed 9 mph    
Max Gust Speed 16 mph    
Visibility 11 miles    
Events Thunderstorm    
Averages and records for this station are not official NWS values.
T = Trace of Precipitation, MM = Missing Value Source: NWS Daily Summary

Daily Weather History Graph

Daily Weather History Graph

Search for Another Location

Airport or City:

Trip Planner

Search our weather history database for the weather conditions in past years. The results will help you decide how hot, cold, wet, or windy it might be!

Date:

Astronomy

Aug. 14, 2013 Rise Set
Actual Time 6:57 AM EDT 8:07 PM EDT
Civil Twilight 6:33 AM EDT 8:31 PM EDT
Nautical Twilight 6:03 AM EDT 9:00 PM EDT
Astronomical Twilight 5:33 AM EDT 9:30 PM EDT
Moon 2:11 PM EDT (8/14) 12:23 AM EDT (8/14)
Length of Visible Light 13h 58m
Length of Day
13h 09m
First Quarter, 52% of the Moon is Illuminated
Aug 14
First Quarter
Aug 20
Full
Aug 28
Last Quarter
Sep 5
New
Sep 12
First Quarter

Hourly Weather History & Observations

Time (EDT) Temp. Heat Index Dew Point Humidity Pressure Visibility Wind Dir Wind Speed Gust Speed Precip Events Conditions
12:15 AM 80.6 °F 85.4 °F 73.4 °F 79% 30.03 in 10.0 mi Calm Calm - N/A   Mostly Cloudy
12:35 AM 80.6 °F 85.4 °F 73.4 °F 79% 30.02 in 10.0 mi SSW 4.6 mph - N/A Thunderstorm Thunderstorm
12:55 AM 80.6 °F 86.2 °F 75.2 °F 84% 30.01 in 10.0 mi Calm Calm - N/A   Scattered Clouds
1:15 AM 80.6 °F 86.2 °F 75.2 °F 84% 30.01 in 10.0 mi Calm Calm - N/A   Clear
1:35 AM 78.8 °F - 75.2 °F 89% 30.01 in 10.0 mi South 3.5 mph - N/A   Clear
1:55 AM 78.8 °F - 75.2 °F 89% 30.00 in 10.0 mi Calm Calm - N/A   Mostly Cloudy
2:15 AM 78.8 °F - 77.0 °F 94% 30.00 in 10.0 mi Calm Calm - N/A   Overcast
2:35 AM 78.8 °F - 75.2 °F 89% 30.00 in 10.0 mi Calm Calm - N/A   Mostly Cloudy
2:55 AM 78.8 °F - 75.2 °F 89% 29.99 in 10.0 mi Calm Calm - N/A   Mostly Cloudy
3:15 AM 78.8 °F - 73.4 °F 83% 29.99 in 10.0 mi Calm Calm - N/A   Scattered Clouds
3:35 AM 78.8 °F - 73.4 °F 83% 29.98 in 10.0 mi Calm Calm - N/A Thunderstorm Scattered Clouds
3:55 AM 78.8 °F - 73.4 °F 83% 29.99 in 10.0 mi SSW 4.6 mph - N/A   Mostly Cloudy
4:15 AM 77.0 °F - 73.4 °F 89% 29.98 in 10.0 mi South 4.6 mph - N/A   Mostly Cloudy
4:35 AM 77.0 °F - 73.4 °F 89% 29.98 in 10.0 mi Calm Calm - N/A   Scattered Clouds
4:55 AM 77.0 °F - 73.4 °F 89% 29.98 in 10.0 mi SSW 3.5 mph - N/A   Clear
5:15 AM 77.0 °F - 73.4 °F 89% 29.98 in 10.0 mi South 3.5 mph - N/A   Scattered Clouds
5:35 AM 77.0 °F - 73.4 °F 89% 29.98 in 10.0 mi South 3.5 mph - N/A   Clear
5:55 AM 77.0 °F - 73.4 °F 89% 29.98 in 10.0 mi SSE 3.5 mph - N/A   Clear
5:56 AM 77.0 °F - 75.2 °F 94% 29.98 in 10.0 mi Calm Calm - N/A   Scattered Clouds
6:15 AM 77.0 °F - 73.4 °F 89% 29.98 in 10.0 mi Calm Calm - N/A   Clear
6:35 AM 75.2 °F - 73.4 °F 94% 29.98 in 10.0 mi Calm Calm - N/A   Scattered Clouds
6:52 AM 75.2 °F - 75.2 °F 100% 29.98 in 7.0 mi Calm Calm - N/A   Scattered Clouds
7:52 AM 78.8 °F - 75.2 °F 89% 30.00 in 12.0 mi Calm Calm - N/A   Partly Cloudy
8:51 AM 82.4 °F 89.5 °F 75.2 °F 79% 30.00 in 12.0 mi SSW 5.8 mph - N/A   Partly Cloudy
9:51 AM 84.2 °F 89.6 °F 71.6 °F 66% 30.00 in 15.0 mi SW 5.8 mph - N/A   Scattered Clouds
10:50 AM 87.8 °F 93.8 °F 71.6 °F 58% 30.00 in 15.0 mi SW 5.8 mph - N/A   Mostly Cloudy
11:56 AM 89.6 °F 96.2 °F 71.6 °F 55% 30.00 in 15.0 mi South 3.5 mph - N/A   Mostly Cloudy
12:50 PM 91.4 °F 98.4 °F 71.6 °F 52% 29.99 in 15.0 mi Calm Calm - N/A   Mostly Cloudy
1:50 PM 91.4 °F 98.4 °F 71.6 °F 52% 29.98 in 15.0 mi WSW 4.6 mph - N/A   Mostly Cloudy
2:52 PM 89.6 °F 94.7 °F 69.8 °F 52% 29.95 in 15.0 mi SW 6.9 mph - N/A   Mostly Cloudy
3:50 PM 80.6 °F 83.2 °F 68.0 °F 65% 29.95 in 15.0 mi WSW 9.2 mph - N/A   Mostly Cloudy
4:50 PM 78.8 °F - 69.8 °F 74% 29.95 in 15.0 mi West 5.8 mph - N/A   Mostly Cloudy
5:50 PM 78.8 °F - 69.8 °F 74% 29.96 in 15.0 mi North 9.2 mph - N/A   Mostly Cloudy
6:50 PM 80.6 °F 83.9 °F 69.8 °F 70% 29.97 in 15.0 mi Calm Calm - N/A   Mostly Cloudy
7:50 PM 80.6 °F 83.9 °F 69.8 °F 70% 29.97 in 15.0 mi Calm Calm - N/A   Mostly Cloudy
8:50 PM 78.8 °F - 71.6 °F 78% 29.99 in 10.0 mi Calm Calm - N/A   Mostly Cloudy
9:50 PM 78.8 °F - 71.6 °F 78% 29.99 in 10.0 mi Calm Calm - N/A   Partly Cloudy
10:55 PM 77.0 °F - 71.6 °F 83% 30.02 in 10.0 mi Calm Calm - N/A   Clear
11:15 PM 75.2 °F - 71.6 °F 89% 30.03 in 10.0 mi SE 4.6 mph - N/A   Clear
11:35 PM 75.2 °F - 71.6 °F 89% 30.05 in 10.0 mi SE 5.8 mph - N/A   Clear
11:55 PM 77.0 °F - 71.6 °F 83% 30.05 in 10.0 mi SSE 9.2 mph 16.1 mph N/A   Scattered Clouds